Location: Cedarville Mobile Home Park
(38.5815°N, 75.0860°W)
Time: 05:30:22
(UTC+00:00)

Envisat - Visible Passes

Search period start: 14 October 2024 00:00
Search period end: 24 October 2024 00:00
Orbit: 762 x 764 km, 98.3° (Epoch: 13 October)

Date Brightness Start Highest point End Pass type
(mag) Time Alt. Az. Time Alt. Az. Time Alt. Az.
14 Oct 5.8 07:34:25 10° NNE 07:34:49 12° NNE 07:34:49 12° NNE visible
14 Oct 5.0 09:13:57 10° NNW 09:14:57 14° NNW 09:14:57 14° NNW visible
15 Oct 5.1 08:35:44 10° N 08:36:53 17° N 08:36:53 17° N visible
16 Oct 5.5 07:58:09 10° NNE 07:58:49 14° NNE 07:58:49 14° NNE visible
17 Oct 5.1 09:00:06 10° N 09:00:53 14° NNW 09:00:53 14° NNW visible
18 Oct 5.4 08:22:08 10° N 08:22:49 14° N 08:22:49 14° N visible
19 Oct 5.9 07:44:44 10° NNE 07:44:44 10° NNE 07:44:44 10° NNE visible
19 Oct 5.3 09:24:49 10° NNW 09:24:53 10° NNW 09:24:53 10° NNW visible
20 Oct 5.3 08:46:21 10° N 08:46:48 12° N 08:46:48 12° N visible
21 Oct 5.7 08:08:35 10° NNE 08:08:44 11° NNE 08:08:44 11° NNE visible
23 Oct 5.6 08:32:39 10° N 08:32:43 10° N 08:32:43 10° N visible
